Change the Weather History Date:

Sunday, March 17, 2013

  Actual Average Record
Temperature  
Mean Temperature 63 °F 59 °F  
Max Temperature 76 °F 72 °F 89 °F (2002)
Min Temperature 49 °F 47 °F 30 °F (1978)
Degree Days  
Heating Degree Days 2 7  
Month to date heating degree days 212 140  
Since 1 July heating degree days 1605 1818  
Cooling Degree Days 0 1  
Month to date cooling degree days 3 17  
Year to date cooling degree days 31 32  
Growing Degree Days 10 (Base 50)    
Moisture  
Dew Point 55 °F    
Average Humidity 81    
Maximum Humidity 100    
Minimum Humidity 61    
Precipitation  
Precipitation 0.11 in 0.17 in 2.26 in (1993)
Month to date precipitation 1.45 3.08  
Year to date precipitation 19.88 14.21  
Sea Level Pressure  
Sea Level Pressure 29.94 in    
Wind  
Wind Speed 5 mph (South)    
Max Wind Speed 15 mph    
Max Gust Speed 21 mph    
Visibility 7 miles    
Events Rain , Thunderstorm    
T = Trace of Precipitation, MM = Missing Value Source: NWS Daily Summary

Daily Weather History Graph

Daily Weather History Graph

Search for Another Location

Airport or City:

Trip Planner

Search our weather history database for the weather conditions in past years. The results will help you decide how hot, cold, wet, or windy it might be!

Date:

Astronomy

Mar. 17, 2013 Rise Set
Actual Time 7:04 AM CDT 7:06 PM CDT
Civil Twilight 6:40 AM CDT 7:30 PM CDT
Nautical Twilight 6:11 AM CDT 7:59 PM CDT
Astronomical Twilight 5:43 AM CDT 8:27 PM CDT
Moon 10:37 AM CDT (3/17) No Moon Set
Length of Visible Light 12h 50m
Length of Day
12h 02m
Waxing Crescent, 31% of the Moon is Illuminated
Mar 17
Waxing Crescent
Mar 19
First Quarter
Mar 27
Full
Apr 2
Last Quarter
Apr 10
New

Hourly Weather History & Observations

Time (CDT) Temp. Dew Point Humidity Pressure Visibility Wind Dir Wind Speed Gust Speed Precip Events Conditions
12:53 AM 57.9 °F 55.0 °F 90% 29.99 in 10.0 mi South 5.8 mph - N/A   Clear
1:53 AM 55.0 °F 53.1 °F 93% 29.97 in 10.0 mi SSE 3.5 mph - N/A   Clear
2:53 AM 52.0 °F 50.0 °F 93% 29.97 in 10.0 mi SE 3.5 mph - N/A   Clear
3:53 AM 51.1 °F 48.9 °F 92% 29.96 in 9.0 mi SE 3.5 mph - N/A   Clear
4:25 AM 51.8 °F 48.2 °F 88% 29.97 in 10.0 mi Calm Calm - N/A   Scattered Clouds
4:34 AM 51.8 °F 48.2 °F 88% 29.97 in 10.0 mi SE 3.5 mph - N/A   Mostly Cloudy
5:11 AM 50.0 °F 48.2 °F 94% 29.97 in 0.8 mi Calm Calm - N/A   Mist
5:22 AM 50.0 °F 48.2 °F 94% 29.97 in 2.0 mi Calm Calm - N/A   Overcast
5:29 AM 50.0 °F 48.2 °F 94% 29.97 in 0.8 mi Calm Calm - N/A   Mist
5:53 AM 48.9 °F 48.0 °F 97% 29.97 in 1.5 mi Calm Calm - N/A   Overcast
5:56 AM 48.2 °F 48.2 °F 100% 29.97 in 3.0 mi Calm Calm - N/A   Overcast
6:20 AM 50.0 °F 48.2 °F 94% 29.98 in 1.8 mi Calm Calm - N/A   Overcast
6:38 AM 50.0 °F 48.2 °F 94% 29.98 in 2.5 mi Calm Calm - N/A   Overcast
6:53 AM 50.0 °F 48.9 °F 96% 29.98 in 5.0 mi Calm Calm - N/A   Overcast
7:17 AM 50.0 °F 48.2 °F 94% 29.98 in 1.5 mi Calm Calm - N/A   Overcast
7:29 AM 50.0 °F 48.2 °F 94% 29.98 in 3.0 mi Calm Calm - N/A   Mostly Cloudy
7:42 AM 51.8 °F 48.2 °F 88% 29.99 in 4.0 mi Calm Calm - N/A   Scattered Clouds
7:53 AM 52.0 °F 50.0 °F 93% 29.99 in 4.0 mi Calm Calm - N/A   Clear
8:53 AM 54.0 °F 53.1 °F 97% 30.00 in 6.0 mi Calm Calm - N/A   Partly Cloudy
9:53 AM 57.9 °F 55.0 °F 90% 30.01 in 8.0 mi Calm Calm - N/A   Partly Cloudy
10:53 AM 64.0 °F 57.9 °F 80% 30.00 in 10.0 mi SE 3.5 mph - N/A   Partly Cloudy
11:53 AM 68.0 °F 59.0 °F 73% 29.98 in 10.0 mi South 6.9 mph - N/A   Clear
12:53 PM 72.0 °F 60.1 °F 66% 29.96 in 10.0 mi South 6.9 mph - N/A   Unknown
1:14 PM 73.4 °F 60.8 °F 65% 29.96 in 10.0 mi South 8.1 mph - N/A   Mostly Cloudy
1:38 PM 71.6 °F 60.8 °F 69% 29.95 in 10.0 mi South 11.5 mph - N/A   Mostly Cloudy
1:53 PM 73.0 °F 60.1 °F 64% 29.93 in 10.0 mi South 12.7 mph - N/A   Scattered Clouds
2:53 PM 68.0 °F 63.0 °F 84% 29.90 in 5.0 mi West 3.5 mph - 0.06 in Rain Light Rain
3:09 PM 69.8 °F 62.6 °F 78% 29.90 in 10.0 mi NW 6.9 mph - 0.00 in Thunderstorm Thunderstorm
3:27 PM 68.0 °F 62.6 °F 83% 29.89 in 10.0 mi NW 8.1 mph - 0.00 in   Overcast
3:47 PM 69.8 °F 62.6 °F 78% 29.89 in 2.5 mi Variable 4.6 mph - 0.05 in Rain , Thunderstorm Heavy Rain
3:53 PM 70.0 °F 62.1 °F 76% 29.88 in 2.5 mi Calm Calm - 0.05 in Rain , Thunderstorm Light Rain
4:01 PM 71.6 °F 64.4 °F 78% 29.88 in 10.0 mi Calm Calm - 0.00 in Thunderstorm Mostly Cloudy
4:08 PM 71.6 °F 62.6 °F 73% 29.87 in 10.0 mi Calm Calm - 0.00 in   Mostly Cloudy
4:53 PM 73.9 °F 57.9 °F 57% 29.86 in 10.0 mi SSW 12.7 mph - 0.00 in   Partly Cloudy
5:53 PM 73.9 °F 59.0 °F 59% 29.85 in 10.0 mi South 11.5 mph - N/A   Partly Cloudy
6:53 PM 72.0 °F 60.1 °F 66% 29.86 in 10.0 mi South 11.5 mph - N/A   Clear
7:53 PM 66.0 °F 59.0 °F 78% 29.86 in 10.0 mi SE 6.9 mph - N/A   Clear
8:53 PM 66.9 °F 57.0 °F 70% 29.86 in 10.0 mi SSE 9.2 mph - N/A   Clear
9:53 PM 66.0 °F 55.9 °F 70% 29.88 in 10.0 mi South 11.5 mph 20.7 mph N/A   Clear
10:53 PM 64.0 °F 57.0 °F 78% 29.88 in 10.0 mi SSE 10.4 mph - N/A   Mostly Cloudy
11:53 PM 64.0 °F 57.9 °F 80% 29.87 in 10.0 mi SSE 6.9 mph - N/A   Overcast